Iowa City, IA

1:55 AM CST on December 16, 2019 (GMT -0600)
Iowa City Municipal

Weather History for KIOW - October, 2019

Change the Weather History Date:

Friday, October 4, 2019

  Actual Average Record
Temperature  
Mean Temperature 54 °F 56 °F  
Max Temperature 63 °F 68 °F 91 °F (2005)
Min Temperature 44 °F 45 °F 30 °F (1968)
Degree Days  
Heating Degree Days 11 9  
Month to date heating degree days 21 35  
Since 1 July heating degree days 28 147  
Cooling Degree Days 0 1  
Month to date cooling degree days 18 4  
Year to date cooling degree days 1175 906  
Growing Degree Days 4 (Base 50)    
Moisture  
Dew Point 43 °F    
Average Humidity 68    
Maximum Humidity 83    
Minimum Humidity 52    
Precipitation  
Precipitation T in 0.08 in 1.45 in (2013)
Month to date precipitation 0.89 0.34  
Year to date precipitation 37.86 29.88  
Sea Level Pressure  
Sea Level Pressure 30.37 in    
Wind  
Wind Speed 7 mph (NE)    
Max Wind Speed 13 mph    
Max Gust Speed 23 mph    
Visibility 10 miles    
Events Rain    
T = Trace of Precipitation, MM = Missing Value Source: NWS Daily Summary

Daily Weather History Graph

Daily Weather History Graph

Search for Another Location

Airport or City:

Astronomy

Oct. 04, 2019 Rise Set
Actual Time 7:06 AM CDT 6:43 PM CDT
Civil Twilight 6:38 AM CDT 7:10 PM CDT
Nautical Twilight 6:06 AM CDT 7:42 PM CDT
Astronomical Twilight 5:33 AM CDT 8:15 PM CDT
Moon 1:42 PM CDT (10/4) 11:08 PM CDT (10/4)
Length of Visible Light 12h 32m
Length of Day
11h 37m
Waxing Crescent, 40% of the Moon is Illuminated
Oct 4
Waxing Crescent
Oct 5
First Quarter
Oct 13
Full
Oct 21
Last Quarter
Oct 27
New

Hourly Weather History & Observations

Time (CDT) Temp. Windchill Dew Point Humidity Pressure Visibility Wind Dir Wind Speed Gust Speed Precip Events Conditions
12:52 AM 48.0 °F - 41.0 °F 77% 30.38 in 10.0 mi North 5.8 mph - N/A   Clear
1:52 AM 46.0 °F 43.9 °F 41.0 °F 83% 30.39 in 10.0 mi NW 4.6 mph - N/A   Clear
2:52 AM 46.0 °F 43.1 °F 39.9 °F 79% 30.39 in 10.0 mi NW 5.8 mph - N/A   Clear
3:52 AM 45.0 °F 43.5 °F 39.9 °F 82% 30.39 in 10.0 mi NNW 3.5 mph - N/A   Clear
4:52 AM 46.0 °F 42.5 °F 39.9 °F 79% 30.40 in 10.0 mi North 6.9 mph - N/A   Clear
5:52 AM 46.0 °F 43.1 °F 39.9 °F 79% 30.42 in 10.0 mi North 5.8 mph - N/A   Mostly Cloudy
6:36 AM 46.0 °F 43.9 °F 41.0 °F 83% 30.42 in 10.0 mi North 4.6 mph - N/A   Scattered Clouds
6:52 AM 46.0 °F 43.9 °F 39.9 °F 79% 30.43 in 10.0 mi NNE 4.6 mph - N/A   Clear
7:52 AM 48.0 °F - 42.1 °F 80% 30.45 in 10.0 mi NNE 4.6 mph - N/A   Clear
8:52 AM 50.0 °F - 42.1 °F 74% 30.45 in 10.0 mi NNE 11.5 mph - N/A   Clear
9:52 AM 52.0 °F - 42.1 °F 69% 30.45 in 10.0 mi NE 10.4 mph - N/A   Clear
10:52 AM 55.0 °F - 43.0 °F 64% 30.44 in 10.0 mi NNE 10.4 mph - N/A   Scattered Clouds
11:52 AM 55.9 °F - 42.1 °F 60% 30.43 in 10.0 mi NE 4.6 mph - N/A   Partly Cloudy
12:52 PM 59.0 °F - 44.1 °F 58% 30.40 in 10.0 mi Variable 4.6 mph - N/A   Mostly Cloudy
1:52 PM 61.0 °F - 45.0 °F 56% 30.37 in 10.0 mi North - - N/A   Partly Cloudy
2:52 PM 61.0 °F - 44.1 °F 54% 30.35 in 10.0 mi ENE 9.2 mph - N/A   Clear
3:52 PM 62.1 °F - 45.0 °F 53% 30.34 in 10.0 mi NE 8.1 mph - N/A   Clear
4:52 PM 62.1 °F - 44.1 °F 52% 30.31 in 10.0 mi East 6.9 mph - N/A   Clear
5:52 PM 61.0 °F - 44.1 °F 54% 30.30 in 10.0 mi ESE 10.4 mph - N/A   Clear
6:52 PM 57.9 °F - 45.0 °F 62% 30.30 in 10.0 mi East 5.8 mph - N/A   Clear
7:52 PM 57.0 °F - 46.0 °F 67% 30.28 in 10.0 mi East 5.8 mph - N/A   Clear
8:52 PM 55.9 °F - 46.9 °F 72% 30.28 in 10.0 mi East 6.9 mph - N/A   Clear
9:52 PM 55.9 °F - 48.0 °F 75% 30.27 in 10.0 mi ESE 8.1 mph - N/A   Clear
10:52 PM 55.0 °F - 48.0 °F 77% 30.25 in 10.0 mi ESE 10.4 mph - N/A   Clear
11:52 PM 55.9 °F - 48.9 °F 77% 30.25 in 10.0 mi ESE 8.1 mph - 0.00 in Rain Light Rain